Location: Unspecified
(58.7730°N, 5.8460°E)
Time: 17:20:13
(UTC+02:00)

Cosmos 1674 - Visible Passes

Search period start: 29 May 2016 00:00
Search period end: 08 June 2016 00:00
Orbit: 500 x 526 km, 82.5° (Epoch: 29 May)

Date Brightness Start Highest point End Pass type
(mag) Time Alt. Az. Time Alt. Az. Time Alt. Az.
29 May 3.2 02:05:54 12° S 02:09:13 50° E 02:12:53 10° NNE visible
30 May 3.4 01:50:14 12° SSE 01:53:30 42° E 01:57:06 10° NNE visible
30 May 4.2 03:26:05 10° SW 03:29:20 27° WNW 03:32:38 10° N visible
31 May 3.7 01:34:34 11° SSE 01:37:48 36° E 01:41:19 10° NNE visible
31 May 4.0 03:10:09 10° SW 03:13:33 31° WNW 03:16:58 10° N visible
01 Jun 3.9 01:18:54 11° SSE 01:22:07 31° E 01:25:30 10° NNE visible
01 Jun 3.8 02:54:15 10° SW 02:57:45 36° WNW 03:01:18 10° N visible
02 Jun 4.1 01:03:15 10° SSE 01:06:26 27° E 01:09:39 10° NNE visible
02 Jun 3.5 02:38:22 10° SW 02:41:58 42° WNW 02:45:37 10° N visible
03 Jun 4.3 00:47:45 10° SE 00:50:45 23° E 00:53:48 10° NE visible
03 Jun 3.3 02:22:31 10° SSW 02:26:11 49° WNW 02:29:54 10° N visible
04 Jun 4.5 00:32:17 10° SE 00:35:05 20° E 00:37:54 10° NE visible
04 Jun 3.1 02:06:43 10° SSW 02:10:25 58° WNW 02:14:12 10° N visible
05 Jun 4.7 00:16:54 10° SE 00:19:25 17° E 00:21:58 10° NE visible
05 Jun 2.9 01:50:59 11° SSW 01:54:39 69° WNW 01:58:28 10° N visible
06 Jun 4.8 00:01:33 10° ESE 00:03:45 15° E 00:05:58 10° NE visible
06 Jun 2.7 01:35:14 11° SSW 01:38:53 81° WNW 01:42:43 10° NNE visible
07 Jun 2.7 01:19:28 11° S 01:23:08 86° ESE 01:26:58 10° NNE visible
07 Jun 5.1 02:56:55 10° W 02:59:24 16° NW 03:01:54 10° NNW visible
